User: anonymous   Login
Location: Franzen
(48.6167°N, 15.3833°E)
Time: 12:18:33
(UTC+00:00)
Language:

Cosmos 540 Rocket - Orbit

View from above orbital plane
View from above orbital plane
View from above satellite
View from above satellite

Ground track
Ground track

The orbit data is extracted from the following two-line orbital elements,

1 06324U 72104B   21173.63636303  .00000012  00000-0  11381-4 0  9994
2 06324  74.0777 267.9976 0008751  22.9440 337.2106 14.43533097547161
Epoch (UTC): 22 June 2021 15:16:21
Eccentricity: 0.0008751
inclination: 74.0777°
perigee height: 740 km
apogee height: 753 km
right ascension of ascending node: 267.9976°
argument of perigee: 22.9440°
revolutions per day: 14.43533097
mean anomaly at epoch: 337.2106°
orbit number at epoch: 54716

The dashed part of the orbit path shows where the satellite is in the earth's shadow,  

DLR